Weather History for Barking Sands, HI

Change the Weather History Date:

Tuesday, October 25, 2011

  Actual Average Record
Temperature  
Mean Temperature 78 °F -  
Max Temperature 82 °F 86 °F 90 °F (1977)
Min Temperature 73 °F 65 °F 60 °F (1965)
Cooling Degree Days 12    
Growing Degree Days 28 (Base 50)    
Moisture  
Dew Point 67 °F    
Average Humidity 74    
Maximum Humidity 85    
Minimum Humidity 54    
Precipitation  
Precipitation 0.03 in - - ()
Sea Level Pressure  
Sea Level Pressure 29.99 in    
Wind  
Wind Speed 4 mph (East)    
Max Wind Speed 17 mph    
Max Gust Speed 21 mph    
Visibility 10 miles    
Events Rain    
Averages and records for this station are not official NWS values.
T = Trace of Precipitation, MM = Missing Value Source: NWS Daily Summary

Daily Weather History Graph

Daily Weather History Graph

Search for Another Location

Airport:

Trip Planner

Search our weather history database for the weather conditions in past years. The results will help you decide how hot, cold, wet, or windy it might be!

Date:

Astronomy

Oct. 25, 2011 Rise Set
Actual Time 6:39 AM HST 6:06 PM HST
Civil Twilight 6:16 AM HST 6:29 PM HST
Nautical Twilight 5:50 AM HST 6:55 PM HST
Astronomical Twilight 5:24 AM HST 7:21 PM HST
Moon 5:28 AM HST (10/25) 5:17 PM HST (10/25)
Length of Visible Light 12h 12m
Length of Day
11h 27m
Waning Crescent, 1% of the Moon is Illuminated
Oct 25
Waning Crescent
Oct 26
New
Nov 2
First Quarter
Nov 10
Full
Nov 18
Last Quarter

Hourly Weather History & Observations

Time (HST) Temp. Heat Index Dew Point Humidity Pressure Visibility Wind Dir Wind Speed Gust Speed Precip Events Conditions
12:56 AM 73.0 °F - 64.9 °F 76% 29.99 in 10.0 mi ENE 5.8 mph - N/A   Clear
1:56 AM 73.0 °F - 66.0 °F 79% 29.97 in 10.0 mi East 3.5 mph - N/A   Overcast
2:56 AM 75.0 °F - 66.9 °F 76% 29.96 in 10.0 mi Calm Calm - N/A   Overcast
3:56 AM 73.0 °F - 66.9 °F 81% 29.96 in 10.0 mi Calm Calm - N/A   Overcast
4:56 AM 73.0 °F - 66.9 °F 81% 29.96 in 10.0 mi Calm Calm - N/A   Overcast
5:56 AM 73.0 °F - 64.9 °F 76% 29.95 in 10.0 mi Calm Calm - N/A   Partly Cloudy
6:56 AM 73.0 °F - 64.0 °F 73% 29.98 in 10.0 mi ENE 4.6 mph - N/A   Clear
7:56 AM 75.9 °F - 66.0 °F 71% 29.98 in 10.0 mi Calm Calm - N/A   Clear
8:54 AM 75.2 °F - 68.0 °F 78% 29.98 in 10.0 mi Calm Calm - N/A   Partly Cloudy
8:56 AM 75.9 °F - 68.0 °F 76% 29.99 in 10.0 mi WSW 3.5 mph - N/A   Partly Cloudy
9:56 AM 82.9 °F 84.6 °F 64.9 °F 54% 30.00 in 10.0 mi NNE 5.8 mph - N/A   Clear
10:56 AM 81.0 °F 83.0 °F 66.0 °F 60% 30.01 in 10.0 mi NNW 5.8 mph - 0.00 in Rain Light Rain
11:56 AM 81.0 °F 83.3 °F 66.9 °F 62% 30.00 in 10.0 mi Variable 3.5 mph - 0.00 in   Overcast
12:47 PM 78.8 °F - 69.8 °F 74% 29.97 in 10.0 mi East 5.8 mph - 0.00 in Rain Light Rain
12:56 PM 79.0 °F - 70.0 °F 74% 29.98 in 10.0 mi Calm Calm - 0.00 in Rain Light Rain
1:56 PM 79.0 °F - 66.9 °F 66% 29.96 in 10.0 mi South 10.4 mph - N/A   Overcast
2:56 PM 82.0 °F 85.5 °F 69.1 °F 65% 29.94 in 10.0 mi SSW 17.3 mph 20.7 mph N/A   Overcast
3:56 PM 81.0 °F 83.8 °F 68.0 °F 65% 29.95 in 10.0 mi South 12.7 mph - N/A   Overcast
4:56 PM 77.0 °F - 66.9 °F 71% 29.97 in 7.0 mi ENE 4.6 mph - 0.02 in Rain Rain
5:56 PM 73.9 °F - 69.1 °F 85% 29.98 in 10.0 mi Calm Calm - 0.01 in   Clear
6:56 PM 73.9 °F - 69.1 °F 85% 30.00 in 10.0 mi Calm Calm - N/A   Scattered Clouds
7:56 PM 73.9 °F - 69.1 °F 85% 30.02 in 10.0 mi Calm Calm - N/A   Overcast
8:56 PM 73.9 °F - 68.0 °F 82% 30.04 in 10.0 mi East 3.5 mph - N/A   Clear
9:56 PM 73.9 °F - 66.9 °F 79% 30.05 in 10.0 mi ENE 4.6 mph - N/A   Clear
10:56 PM 73.0 °F - 66.0 °F 79% 30.05 in 10.0 mi ESE 3.5 mph - N/A   Clear
11:56 PM 73.0 °F - 66.0 °F 79% 30.04 in 10.0 mi East 4.6 mph - N/A   Clear